Вернуться в каталог

STARLINK-4002

АктивенСвязьVLEO
NORAD 52612·PAYLOAD·🇺🇸 United States

Запущен May 14, 2022 с Cape Canaveral Space Force Station

Loading…

Ближайшие Пролёты (ближайшие 24 часа)

TLE

СвежийSource: CelesTrak SupGP

Эпоха: Sep 14, 2026, 20:51 UTC

1 52612C 22052Q   26257.86923611 -.00025545  00000+0 -75464-3 0  2573
2 52612  53.1575 141.7024 0001244  81.2149  82.6217 15.34407321    16

Отслеживайте STARLINK-4002 в реальном времени с AllMySat

Download on the App Store